Location: Peterborough
(44.3091°N, 78.3197°W)
Time: 06:03:54
(UTC-04:00)

Vanguard 3 - Pass Details

Date: 25 February 2024
Orbit: 510 x 3236 km, 33.3° (Epoch: 12 April)

Event Time Altitude Azimuth Distance (km) Brightness Sun altitude
Rises 00:02:02 0° 264° (W) 7,196 12.0 -54.6°
Reaches altitude 10° 00:07:11 10° 261° (W) 6,103 11.5 -54.7°
Enters shadow 00:11:29 20° 256° (WSW) 5,181 11.1 -54.8°
Maximum altitude 00:24:50 53° 192° (SSW) 2,947 - -55.0°
Drops below altitude 10° 00:36:20 10° 120° (ESE) 4,118 - -54.9°
Sets 00:39:05 0° 115° (ESE) 4,796 - -54.9°
